Flag for Germany Weather past 2 weeks in Prenzlau, Brandenburg, Germany

45 °F

Partly cloudy.

Feels Like: 38 °F
Forecast: 39 / 47 °F
Wind: 15 mph from South

Location: Szczecin Airport

Current Time: Nov 29, 2015 at 10:56:17 PM

Latest Report: Nov 29, 2015 at 10:00 PM

Visibility: N/A

Pressure: 29.45 "Hg

Humidity: 93%

Dew point: 43 °F

Location of PrenzlauLocation

Historic Weather in Prenzlau — Graph


Prenzlau temperature yesterday

Maximum temperature yesterday: 36 °F (at 12:30 AM)
Minimum temperature yesterday: 30 °F (at 4:30 AM)
Average temperature yesterday: 33 °F

Past Weeks' High & Low Weather Summary

High54 °F (Nov 17, 9:30 PM)100% (Nov 15, 9:30 AM)30.18 "Hg (Nov 15, 9:30 AM)
Low25 °F (Nov 24, 12:30 AM)67% (Nov 19, 2:30 PM)29.33 "Hg (Nov 21, 1:30 AM)
Average40 °F92%29.71 "Hg
* Reported Nov 14 9:00 PM — Nov 29 9:30 PM, Prenzlau, Weather by CustomWeather, © 2015

Note: Actual official high and low records may vary slightly from our data, if they occured in-between our weather recording intervals... More about our weather records


Prenzlau weather history for previous 24 hours

Time TempWeatherWind HumidityBarometerVisibility
9:30 PM
Sun, Nov 29
45 °FPartly cloudy.15 mph93%29.47 "HgN/A
9:00 PM45 °FLight rain. Partly cloudy.15 mph87%29.50 "HgN/A
8:30 PM43 °FLight rain. Partly cloudy.15 mph93%29.53 "HgN/A
8:00 PM43 °FLight rain. Partly cloudy.12 mph93%29.53 "HgN/A
7:30 PM45 °FPartly cloudy.13 mph87%29.56 "HgN/A
7:00 PM45 °FPassing clouds.10 mph87%29.56 "HgN/A
6:30 PM43 °FPassing clouds.10 mph93%29.59 "HgN/A
6:00 PM43 °FPartly cloudy.10 mph93%29.59 "HgN/A
5:30 PM43 °FPartly cloudy.8 mph93%29.62 "HgN/A
5:00 PM43 °FLight rain. Partly cloudy.13 mph93%29.62 "HgN/A
4:30 PM43 °FLight rain. Partly cloudy.13 mph93%29.62 "HgN/A
4:00 PM43 °FPassing clouds.9 mph87%29.62 "HgN/A
3:30 PM43 °FBroken clouds.12 mph87%29.62 "HgN/A
3:00 PM43 °FPartly sunny.10 mph87%29.62 "HgN/A
2:30 PM43 °FPartly sunny.12 mph87%29.62 "HgN/A
2:00 PM43 °FBroken clouds.13 mph87%29.62 "HgN/A
1:30 PM43 °FBroken clouds.13 mph87%29.62 "HgN/A
1:00 PM43 °FPartly sunny.13 mph87%29.65 "HgN/A
12:30 PM43 °FBroken clouds.13 mph87%29.65 "HgN/A
12:00 PM41 °FBroken clouds.14 mph87%29.65 "HgN/A
11:30 AM41 °FBroken clouds.13 mph87%29.65 "HgN/A
10:30 AM41 °FPartly sunny.12 mph87%29.65 "HgN/A
10:00 AM39 °FPartly sunny.12 mph93%29.65 "HgN/A
9:30 AM39 °FBroken clouds.12 mph93%29.65 "HgN/A
9:00 AM37 °FBroken clouds.12 mph93%29.65 "HgN/A
8:00 AM37 °FPartly sunny.12 mph93%29.65 "HgN/A
7:30 AM36 °FPassing clouds.10 mph93%29.65 "HgN/A
7:00 AM36 °FLight rain. Passing clouds.13 mph93%29.65 "HgN/A
6:00 AM36 °FLight rain. Passing clouds.12 mph93%29.68 "HgN/A
5:30 AM36 °FLight rain. Passing clouds.12 mph93%29.68 "HgN/A
5:00 AM36 °FPassing clouds.10 mph93%29.71 "HgN/A
4:30 AM34 °FPassing clouds.9 mph93%29.71 "HgN/A
4:00 AM34 °FClear.12 mph93%29.74 "Hg10 mi
3:30 AM34 °FClear.12 mph93%29.74 "Hg10 mi
3:00 AM34 °FClear.10 mph100%29.77 "Hg10 mi
2:30 AM34 °FClear.8 mph100%29.77 "Hg10 mi
2:00 AM36 °FClear.9 mph93%29.80 "Hg10 mi
1:30 AM34 °FClear.7 mph100%29.80 "Hg10 mi
1:00 AM34 °FClear.6 mph100%29.80 "Hg10 mi
12:30 AM36 °FClear.5 mph93%29.80 "Hg10 mi
12:00 AM36 °FClear.6 mph100%29.83 "Hg10 mi
11:00 PM
Sat, Nov 28
36 °FClear.6 mph100%29.80 "Hg10 mi
10:30 PM36 °FClear.6 mph100%29.83 "Hg10 mi
Weather by CustomWeather, © 2015

See weather overviewHow to use our weather pages